Location: Habighorst
(52.7089°N, 10.2278°E)
Time: 23:43:03
(UTC+00:00)

Cosmos 1745 Rocket - Pass Details

Date: 13 January 2026
Orbit: 952 x 997 km, 83.0° (Epoch: 9 February)

Event Time Altitude Azimuth Distance (km) Brightness Sun altitude
Exits shadow 03:49:17 73° 79° (E) 1,000 4.0 -31.7°
Drops below altitude 10° 03:55:13 10° 13° (NNE) 2,692 6.5 -30.8°
Sets 03:57:43 0° 12° (NNE) 3,641 7.2 -30.5°
